Retour au catalogue

OPS 5644

ActifMilitairePO
NORAD 10033·PAYLOAD·🇺🇸 United States

Lancé Jun 5, 1977 depuis Vandenberg Space Force Base

Loading…

Prochains Passages (prochaines 24 heures)

TLE

FraisSource: Space-Track

Époque: Sep 14, 2026, 09:50 UTC

1 10033U 77044A   26257.41028477  .00000139  00000-0  70150-4 0  9994
2 10033  99.1087 310.2011 0037146 331.0818  28.8305 14.31498976380926

Suivez OPS 5644 en temps réel avec AllMySat

Download on the App Store